Temp_Advection
nan nan nan nan nan nan nan nan nan nan nan nan nan nan nan nan nan nan nan nan nan nan nan nan nan nan nan nan nan nan nan nan nan nan nan nan nan nan nan nan nan nan nan nan nan nan nan nan nan
nan 0 0 -0 -0 0 -0 -0 0 -0 0 -0 -0 -0 -0 0 0 -0 0 0 0 0 0 0 0 0 0 0 0 0 0 0 0 0 0 0 0 0 -0 0 0 0 -0 0 0 -0 -0 -0 nan
nan 0 -0 -1 0 0 -0 -0 -0 -0 0 -0 -0 -0 -0 0 0 -0 0 0 0 0 0 0 0 0 0 -0 0 0 0 0 0 0 -0 0 0 0 -0 -0 0 0 0 0 0 0 -0 -0 nan
nan -0 -1 0 0 -0 -0 -0 -0 -0 -0 -0 -0 -0 0 0 0 0 0 0 0 0 0 0 0 0 0 0 0 -0 0 0 -0 -0 -0 -0 0 0 -0 -0 -0 0 0 0 0 0 0 -0 nan
nan -0 -0 0 -0 -0 -0 -0 -0 -0 -0 -0 -0 -0 0 0 -0 -0 0 0 0 0 0 0 0 0 0 0 0 0 0 0 -0 -0 0 0 0 0 -0 -0 -0 -0 0 0 0 0 0 0 nan
nan -0 -0 0 -0 0 -0 -0 0 -0 -0 -0 -0 -0 -0 -0 -0 0 0 0 -0 0 0 0 0 0 0 0 0 0 0 0 0 0 0 0 0 0 0 0 0 0 0 0 0 0 0 0 nan
nan -0 -0 0 -0 -0 -0 0 -0 -0 0 -0 -0 -0 -0 -0 -0 0 0 0 -0 -0 -0 -0 0 0 0 0 0 0 0 0 0 0 0 0 0 0 0 0 0 0 0 0 0 0 0 0 nan
nan -0 0 -0 0 -0 -0 -0 -0 -0 -0 -0 -0 -0 -0 -0 0 0 0 0 0 -0 0 -0 -0 -0 -0 -0 0 0 0 0 0 0 0 0 0 0 0 0 0 0 0 0 0 0 0 0 nan
nan -0 0 -0 -0 -0 -0 -0 -0 0 0 0 0 -0 -0 0 0 0 0 0 0 0 0 -0 -0 0 0 0 0 0 0 0 0 0 0 0 0 0 0 0 0 0 0 0 0 0 0 -0 nan
nan -0 -0 -0 -0 0 -0 -0 -0 0 0 0 -0 -0 0 0 0 0 0 0 0 0 0 0 0 0 0 0 0 0 0 0 0 0 0 0 -0 0 0 0 0 -0 0 0 -0 0 0 0 nan
nan -0 -0 -0 -0 0 0 -0 0 0 -0 -0 -0 0 0 0 0 0 0 0 0 0 0 0 0 -0 -0 -0 -0 0 0 0 0 0 0 -0 -0 0 0 0 -0 -0 0 0 -0 0 0 0 nan
nan -0 -0 -0 0 0 0 0 0 -0 -0 -0 0 0 0 0 0 0 0 -0 -0 0 0 0 0 0 -0 0 0 0 0 0 0 0 0 0 0 0 0 0 -0 0 0 0 -0 -0 -0 -0 nan
nan -0 -0 -0 0 -0 0 0 -0 -1 -0 0 0 0 0 0 0 0 0 0 0 0 0 0 0 0 0 0 0 0 0 0 -0 0 0 0 0 0 0 0 0 0 0 -0 -0 -0 0 0 nan
nan -0 -1 -0 -0 0 0 -0 -0 -0 -0 0 0 0 0 1 1 0 0 0 0 0 0 0 0 0 0 0 0 0 0 -0 -0 -0 -0 -0 -0 0 0 -0 -0 -0 -0 -0 0 0 0 -0 nan
nan -0 -0 -0 -0 -0 0 0 -0 -1 -0 -0 0 0 1 1 0 -0 0 0 0 0 0 0 0 0 0 0 0 -0 -0 -0 -0 -0 -0 -0 -0 -0 -0 -0 -0 -0 -0 0 0 0 0 0 nan
nan -0 0 -0 -0 -0 -0 0 -1 -0 0 0 0 0 1 0 0 0 0 0 0 0 0 0 0 0 0 -0 -0 -0 0 0 -0 0 -0 -0 -0 -0 0 0 0 0 0 0 0 0 0 0 nan
nan -0 -0 -0 -0 -0 0 -0 -0 -0 0 0 0 0 1 0 0 0 0 0 0 0 0 0 0 0 -0 -0 -0 0 0 0 0 0 0 -0 0 0 0 0 0 0 0 0 0 0 0 0 nan
nan 0 0 -0 -0 0 0 0 -1 -1 0 -0 0 0 0 -0 -0 0 0 0 0 0 0 0 -0 -0 -0 -0 0 0 0 0 0 0 0 0 0 -0 -0 0 0 0 0 0 0 0 -0 -0 nan
nan 0 0 -0 -0 0 0 -1 -1 -0 0 -0 -1 -0 -0 0 0 1 0 0 0 0 0 0 0 -0 -0 0 0 0 0 0 0 0 -0 -0 -0 -0 -0 -0 -0 0 -0 -0 0 -0 -0 -0 nan
nan 0 0 -0 -0 0 0 -1 -1 0 -0 -1 -1 -1 0 1 1 1 0 0 0 0 0 -0 0 0 0 0 -0 0 0 0 0 0 0 -0 0 -0 -0 -0 -0 0 0 -0 -0 0 0 -0 nan
nan 0 0 0 -0 0 -0 -0 -0 -0 -0 -0 -1 -1 -1 0 1 0 0 0 0 0 0 0 0 0 0 0 0 0 0 0 -0 0 0 0 -0 -0 -0 -0 -0 -0 -0 -0 -0 -0 0 0 nan
nan 0 0 0 -0 -0 -0 -0 -1 -0 -0 -0 -1 -1 -0 0 0 -0 -0 -0 0 0 0 0 0 0 0 0 0 0 0 0 0 0 -0 -0 -0 -0 -0 -0 -0 -0 -0 -0 -0 -0 -0 0 nan
nan -0 -0 -0 -0 -0 -0 0 -1 -0 -0 -0 -1 -0 0 -0 -0 0 1 1 1 1 1 0 0 0 0 0 0 0 0 0 0 0 0 -0 -0 -0 -0 -0 -0 -0 -0 -0 -0 0 -0 -0 nan
nan -0 -1 -0 -0 0 -0 -0 -0 -0 0 0 -0 -1 0 0 0 1 1 1 1 1 0 0 0 0 0 0 0 0 0 0 0 0 0 0 0 -0 -0 -0 -0 -0 -0 -0 -0 -0 -0 -0 nan
nan -0 -0 0 0 -0 -0 0 -0 -0 -0 0 -0 -0 -0 0 0 1 1 1 1 1 0 0 0 0 0 0 0 0 0 0 0 0 0 0 0 0 0 0 0 -0 -0 -0 -0 -0 -0 -0 nan
nan -0 -0 -0 -0 -0 -0 -0 -0 0 0 0 0 -0 -0 -0 0 1 1 1 1 1 0 0 0 0 0 0 0 0 0 0 0 0 -0 -0 -0 -0 0 0 -0 0 -0 -0 -0 -0 0 0 nan
nan 0 -0 -0 -0 -0 -0 -0 -1 -0 0 -0 -0 -0 -0 -0 0 0 0 0 1 0 0 0 0 0 0 0 0 0 0 0 0 0 -0 -0 -0 -0 0 0 0 -0 -0 -0 -0 -0 0 -0 nan
nan -0 -0 -0 0 -0 -0 -0 -0 -0 0 0 0 -0 -0 -0 0 0 0 0 0 0 0 0 0 0 0 0 0 0 0 0 0 -0 -0 -0 -0 -0 0 0 0 0 -0 -0 -0 -0 0 0 nan
nan 0 -0 -0 -0 0 -0 -0 -0 -0 0 0 0 0 0 -0 0 0 -0 0 0 0 0 0 0 1 0 0 0 0 0 0 -0 -0 -0 -0 -0 -0 -0 0 0 -0 -0 0 0 0 1 0 nan
nan nan nan nan nan nan nan nan nan nan nan nan nan nan nan nan nan nan nan nan nan nan nan nan nan nan nan nan nan nan nan nan nan nan nan nan nan nan nan nan nan nan nan nan nan nan nan nan nan
Wind_Speed
2 2 2 3 4 5 2 1 1 3 3 3 3 6 7 5 2 3 3 9 13 12 11 13 13 13 14 16 16 15 15 13 12 13 13 10 9 8 9 6 7 10 12 9 9 10 10 10 9
3 3 2 3 5 4 4 4 1 2 3 9 8 4 4 3 1 3 4 10 10 12 12 14 14 14 14 15 17 16 15 13 12 12 13 10 8 8 8 7 6 8 9 8 9 9 8 8 8
3 3 3 4 3 3 3 2 2 3 4 1 3 6 3 2 4 4 8 9 10 11 12 13 15 16 16 15 16 15 14 13 12 12 11 9 8 7 8 7 6 6 6 7 7 8 8 7 7
0 2 5 5 2 0 2 2 3 5 1 2 6 5 3 3 4 7 8 9 9 13 12 12 14 13 15 16 14 14 14 13 13 11 10 9 7 7 7 7 7 6 4 4 5 5 6 7 6
3 3 4 4 1 0 1 4 5 2 2 4 2 3 2 3 5 7 8 9 11 12 13 14 14 13 13 14 14 14 13 11 11 10 10 9 8 7 6 6 7 7 5 3 2 3 3 4 5
3 3 4 3 2 2 3 3 1 1 2 2 4 4 3 3 2 5 6 7 8 11 4 13 11 10 10 12 12 11 11 10 9 9 9 9 8 6 5 5 5 6 5 4 2 2 1 2 3
4 4 4 4 2 1 2 4 1 2 1 2 4 3 3 6 5 7 6 6 7 6 9 11 5 8 4 9 12 11 10 9 9 9 9 9 9 8 8 7 6 5 5 4 4 3 3 2 2
3 4 3 2 3 3 2 1 2 2 2 1 2 3 3 7 5 6 6 7 6 8 10 10 10 8 13 14 9 9 10 10 11 10 10 9 8 6 6 4 5 6 5 5 5 4 4 4 3
2 4 1 3 5 3 1 1 1 2 3 2 3 3 4 6 8 7 8 8 7 9 9 10 10 11 11 10 8 9 10 10 10 11 11 9 8 7 7 7 6 5 5 5 5 5 5 6 6
4 3 6 2 2 2 2 1 3 2 3 3 5 5 6 10 9 8 8 8 9 9 9 9 8 8 10 11 10 10 11 12 13 13 12 10 7 8 8 8 6 8 7 7 8 8 8 8 8
1 3 2 3 3 3 3 4 4 3 5 10 11 11 12 13 11 11 10 9 8 6 5 5 4 4 5 5 5 8 9 14 15 15 14 10 8 12 11 10 10 9 9 8 9 9 6 9 8
3 2 2 3 4 3 3 3 4 10 9 5 8 9 15 16 14 13 13 12 10 8 8 7 6 7 7 7 5 3 3 5 9 13 10 8 7 7 8 7 7 9 8 7 10 10 11 11 11
1 3 6 6 9 9 9 10 8 16 16 13 12 14 18 18 16 15 13 12 11 10 9 9 8 8 8 8 7 5 4 3 4 7 8 8 7 7 8 8 8 9 9 10 11 12 13 13 12
4 8 14 11 10 8 4 4 3 7 5 16 15 15 18 20 19 19 18 16 14 12 11 10 10 10 9 9 8 6 6 6 7 7 8 8 8 9 10 10 10 10 11 11 11 11 11 12 11
3 4 7 1 3 2 4 6 8 16 14 11 17 17 20 20 19 20 17 15 12 12 12 12 12 12 10 9 9 8 7 7 7 7 8 8 8 9 9 10 10 12 12 12 13 13 14 14 14
3 3 5 3 2 0 3 8 7 8 6 11 13 17 21 22 21 19 18 15 12 12 13 13 13 13 11 10 9 8 7 6 6 6 6 6 7 8 9 9 10 10 11 12 13 13 14 15 16
6 2 2 7 3 1 2 7 6 4 9 14 16 17 21 23 22 22 21 17 13 12 13 13 13 13 13 12 10 8 6 6 5 4 4 4 5 6 7 8 8 10 10 10 11 11 12 13 14
3 4 3 4 4 2 5 17 11 26 12 17 17 18 21 25 25 23 23 18 14 12 14 14 16 16 14 11 9 8 6 5 5 4 4 4 4 5 7 8 8 9 9 10 10 11 11 12 14
2 2 5 5 6 3 6 15 18 18 22 22 30 26 23 27 26 27 25 21 17 15 17 18 19 18 15 11 8 7 5 4 3 2 3 4 4 4 4 6 7 8 9 10 11 11 11 12 14
2 4 6 7 2 2 8 13 24 10 10 20 25 29 30 29 29 31 29 26 20 16 19 20 19 16 14 11 9 8 6 5 4 3 3 4 5 5 6 7 7 7 8 10 11 11 11 11 11
2 3 4 4 7 4 6 7 6 4 5 7 13 16 25 31 33 34 32 29 23 20 22 23 20 16 13 11 10 9 8 6 4 4 4 5 5 6 6 6 6 7 7 8 9 11 12 12 9
4 2 2 5 5 2 5 5 8 7 9 7 22 24 10 22 35 37 35 32 27 23 23 24 21 17 13 11 10 9 7 7 6 5 5 5 5 6 6 7 8 7 8 8 8 9 10 11 13
6 1 3 0 1 3 4 3 7 5 6 8 16 25 17 11 28 38 39 34 29 25 25 24 20 17 14 12 11 10 8 7 6 5 5 6 7 7 8 8 8 8 9 9 10 11 12 14 14
3 2 4 3 3 2 3 4 6 2 3 7 10 23 19 4 21 32 35 33 30 26 24 23 21 18 15 13 11 10 9 7 6 4 5 5 7 8 10 10 10 10 10 10 11 13 15 16 16
3 4 3 5 4 4 1 1 8 5 3 2 7 16 16 8 15 27 34 37 33 29 27 23 20 18 15 13 12 10 8 6 4 3 4 4 4 6 8 10 10 10 10 11 13 15 17 18 19
1 3 4 5 2 4 3 6 4 2 5 4 6 8 9 7 9 22 29 34 33 31 27 24 20 18 16 14 12 10 8 5 3 2 3 5 6 8 9 11 11 11 12 12 15 16 17 18 20
3 2 2 2 1 2 3 7 7 2 4 7 8 10 11 8 4 16 25 30 34 30 25 21 19 18 16 15 12 9 7 4 2 3 5 7 9 11 13 14 12 13 13 14 17 18 19 21 21
3 5 3 2 1 4 6 5 6 3 4 5 6 8 8 7 2 11 19 25 30 27 22 20 18 17 17 15 12 9 7 4 2 4 7 9 10 13 14 13 12 12 12 15 16 18 20 18 15
2 2 2 3 4 5 3 5 6 5 4 3 4 3 4 5 2 7 14 19 25 24 21 19 18 18 16 14 12 9 6 3 3 6 8 8 11 14 12 11 10 10 13 14 15 16 17 15 14
3 7 6 3 5 3 2 7 2 6 4 3 5 3 0 2 2 2 8 16 23 24 21 19 18 17 15 14 11 8 6 3 5 7 8 9 12 14 13 11 10 12 13 14 15 14 16 13 15
Wind_Direction
17 11 347 339 49 64 17 14 300 14 7 3 45 85 105 66 9 273 197 179 179 178 176 176 174 170 170 172 172 166 163 161 161 162 162 155 149 142 131 134 105 104 108 110 90 96 99 106 108
57 26 15 64 76 58 289 292 52 275 45 118 99 80 56 87 75 139 142 164 190 179 171 177 177 171 169 168 168 167 164 166 164 160 159 154 149 141 142 148 116 110 109 104 94 94 101 115 118
42 28 48 85 104 147 192 243 264 287 5 167 107 64 95 127 161 191 205 179 183 189 175 176 179 173 168 168 168 167 163 165 160 157 159 157 155 152 149 157 143 129 120 108 99 90 89 103 131
128 72 64 76 81 263 220 293 305 327 6 31 116 63 91 155 195 219 209 196 201 189 189 184 185 180 173 169 169 166 164 163 162 166 168 169 168 160 159 167 168 153 142 115 109 99 91 92 116
58 77 63 88 334 194 276 299 331 343 349 7 354 160 156 186 215 220 224 209 202 193 192 189 186 182 175 173 171 170 168 171 174 171 169 168 169 163 167 169 174 179 174 148 147 114 108 105 107
39 57 64 134 221 221 257 303 184 16 349 358 81 143 213 197 198 192 204 206 195 196 233 222 179 179 184 186 178 174 174 172 177 174 171 171 175 175 170 171 174 183 190 190 177 176 157 138 137
99 75 160 150 225 268 258 338 60 215 340 45 145 146 237 215 199 187 191 208 198 195 194 194 172 186 212 222 181 175 179 180 184 183 180 182 184 185 179 177 177 181 196 209 211 218 220 213 200
60 91 118 205 188 230 280 312 240 238 255 79 176 202 262 225 200 198 193 187 187 180 217 208 184 164 160 209 174 175 189 193 194 194 196 197 197 196 198 202 201 200 202 215 217 220 236 238 237
45 60 165 209 164 225 288 6 233 251 259 208 209 215 263 212 189 197 191 192 181 192 202 214 212 188 197 194 198 199 197 203 205 206 206 202 200 201 197 197 208 213 234 219 223 239 238 245 249
75 110 214 212 200 229 290 268 297 259 235 222 225 220 201 188 185 194 202 210 215 222 202 225 240 180 191 194 191 212 217 217 213 212 213 205 189 203 202 208 229 228 233 241 241 245 257 259 253
139 177 218 245 228 234 247 260 236 228 265 232 220 210 192 192 194 192 196 200 201 204 183 185 184 208 209 211 219 229 225 223 217 216 211 209 234 233 236 240 233 233 237 243 252 235 251 266 268
345 253 274 273 243 261 258 276 274 228 236 240 222 243 209 201 203 200 198 197 197 196 195 196 199 202 205 217 212 190 192 207 221 219 197 210 213 205 207 207 218 236 244 254 262 279 281 274 269
16 323 304 279 288 280 282 264 261 264 255 245 233 220 213 208 204 200 200 199 200 206 215 214 209 218 215 212 213 205 210 189 151 154 168 176 199 230 239 238 238 248 262 265 271 273 274 273 269
312 299 292 299 296 262 250 295 337 286 313 241 237 220 216 213 207 201 202 201 204 212 218 217 213 213 212 210 210 207 206 203 202 207 213 224 235 245 251 252 255 259 262 265 270 270 272 274 275
311 327 318 256 323 280 2 309 238 297 287 279 231 225 223 220 215 218 218 209 218 217 218 216 210 205 205 216 219 207 205 200 201 201 207 214 223 231 241 251 257 263 267 269 271 272 274 274 273
29 52 1 314 98 226 114 261 271 315 221 226 224 225 223 221 223 225 223 216 220 225 216 205 198 201 206 214 218 204 190 195 207 215 217 222 232 243 249 253 256 260 264 268 271 271 272 272 273
3 275 268 315 215 279 177 273 267 298 221 226 224 226 223 219 220 220 216 217 231 226 215 199 194 197 199 194 193 200 195 190 187 206 232 248 252 260 266 268 270 273 279 278 275 274 273 275 280
262 305 265 248 311 309 276 270 271 272 257 248 246 236 226 223 223 214 211 214 220 218 203 196 185 184 183 189 196 194 193 196 196 215 225 238 254 274 283 284 282 278 274 276 278 281 284 290 290
327 304 276 255 271 273 257 275 279 261 268 261 258 250 235 228 221 209 207 208 210 211 201 191 186 183 186 194 197 201 203 215 237 269 295 303 305 295 282 285 287 290 291 291 291 293 294 295 297
236 280 261 286 247 238 303 292 280 273 246 257 267 264 252 231 217 205 202 205 208 215 198 191 191 193 192 194 205 213 208 211 223 261 285 300 310 317 321 315 309 302 298 297 299 299 298 302 305
274 243 320 280 325 285 313 294 320 325 340 360 355 306 266 243 214 203 203 202 205 206 201 195 194 199 201 204 207 212 216 218 236 260 288 300 307 313 317 320 320 318 312 305 302 302 305 301 293
297 200 259 303 19 286 37 283 308 337 327 358 8 5 292 239 214 203 201 202 205 205 201 198 199 201 205 209 212 213 221 230 245 260 274 293 305 308 314 318 318 314 313 316 313 311 307 304 300
228 319 302 322 94 23 336 68 266 339 328 342 347 359 356 241 217 206 206 205 203 201 201 201 202 204 205 208 209 214 220 234 246 257 276 297 304 308 311 311 310 307 306 306 305 309 310 308 302
334 344 43 57 99 14 233 132 281 297 287 314 342 354 358 264 215 213 208 205 203 198 201 203 205 206 206 207 210 215 223 237 247 264 284 296 302 303 299 298 295 294 297 300 306 309 308 305 301
82 60 331 343 8 229 112 79 256 304 321 310 317 343 353 341 217 217 212 207 203 198 199 202 206 208 208 210 211 217 225 230 240 269 292 297 299 295 298 297 291 288 291 295 303 306 306 304 303
109 146 160 235 262 278 313 242 250 236 299 347 16 353 349 5 221 220 218 211 203 199 198 203 206 209 212 213 215 217 220 222 235 274 297 305 310 309 308 304 295 293 296 301 307 307 304 298 295
153 188 176 98 101 28 252 290 305 294 316 351 13 16 9 360 230 221 219 214 204 200 201 205 208 210 214 214 215 215 213 210 221 302 320 317 314 315 313 306 297 297 302 306 310 308 305 299 295
169 160 75 15 242 264 282 274 240 265 269 327 1 11 19 8 249 223 222 216 204 202 203 204 211 215 213 211 209 208 211 219 268 324 322 318 314 316 312 301 297 303 306 309 310 310 309 302 305
147 225 85 131 158 191 282 256 213 218 212 254 295 348 28 30 343 227 226 215 201 200 204 206 211 214 212 208 206 205 210 237 302 321 316 313 317 321 313 302 302 307 310 309 311 316 315 312 307
213 203 166 161 227 225 221 273 264 227 218 228 250 269 322 73 67 233 212 207 199 199 204 210 210 211 209 206 206 211 215 249 300 313 308 314 321 320 316 309 307 310 309 304 305 311 317 311 305
Height
1507 1508 1508 1507 1517 1522 1531 1523 1519 1516 1515 1514 1512 1512 1516 1518 1518 1525 1514 1513 1514 1515 1515 1517 1518 1520 1521 1522 1523 1524 1526 1528 1530 1531 1532 1533 1534 1534 1535 1536 1536 1537 1538 1538 1538 1538 1538 1538 1538
1508 1508 1508 1507 1528 1540 1536 1522 1520 1516 1515 1514 1513 1515 1517 1519 1517 1516 1515 1514 1515 1516 1516 1517 1517 1519 1521 1521 1522 1524 1526 1529 1530 1531 1532 1533 1534 1535 1535 1536 1537 1538 1539 1539 1539 1539 1539 1540 1540
1508 1508 1508 1517 1536 1539 1535 1520 1519 1515 1514 1514 1514 1516 1517 1518 1517 1516 1516 1515 1516 1517 1518 1518 1518 1518 1519 1522 1522 1524 1526 1528 1530 1532 1532 1534 1534 1536 1536 1537 1538 1539 1540 1540 1540 1540 1541 1541 1541
1508 1509 1512 1525 1526 1524 1522 1518 1517 1516 1515 1513 1514 1517 1518 1517 1516 1515 1515 1515 1516 1518 1519 1520 1521 1521 1521 1522 1525 1525 1526 1529 1529 1531 1533 1534 1535 1536 1536 1537 1538 1539 1540 1540 1541 1541 1541 1541 1542
1509 1508 1523 1529 1525 1521 1520 1518 1517 1517 1516 1515 1514 1517 1516 1516 1515 1514 1515 1518 1518 1519 1521 1520 1522 1522 1525 1524 1524 1525 1527 1528 1529 1530 1532 1533 1535 1536 1537 1537 1538 1539 1540 1541 1541 1541 1542 1542 1542
1510 1512 1530 1534 1524 1519 1517 1516 1515 1516 1515 1514 1515 1516 1516 1515 1515 1514 1515 1517 1519 1519 1514 1516 1522 1525 1526 1526 1526 1526 1527 1528 1530 1531 1532 1534 1535 1536 1537 1538 1539 1539 1540 1540 1541 1541 1542 1542 1542
1512 1520 1529 1527 1525 1521 1518 1517 1516 1516 1515 1515 1515 1517 1516 1515 1514 1515 1516 1518 1519 1522 1519 1510 1515 1522 1522 1526 1524 1524 1527 1529 1530 1531 1532 1533 1534 1535 1536 1537 1538 1539 1539 1540 1540 1540 1541 1541 1542
1514 1518 1525 1525 1526 1522 1516 1515 1515 1515 1515 1515 1515 1516 1515 1515 1515 1515 1516 1518 1518 1520 1520 1518 1520 1521 1519 1526 1523 1524 1525 1528 1529 1531 1532 1533 1534 1536 1536 1537 1538 1538 1539 1539 1539 1539 1540 1541 1541
1515 1527 1533 1523 1525 1519 1517 1517 1515 1515 1514 1514 1514 1514 1514 1514 1514 1515 1516 1518 1519 1520 1521 1520 1522 1522 1523 1523 1523 1524 1526 1527 1528 1530 1531 1533 1534 1535 1535 1536 1537 1537 1538 1538 1539 1539 1539 1540 1540
1517 1529 1523 1518 1518 1518 1517 1517 1516 1515 1513 1512 1512 1512 1512 1513 1514 1515 1516 1518 1519 1519 1519 1519 1520 1520 1521 1521 1522 1525 1526 1526 1527 1528 1530 1532 1533 1534 1535 1536 1536 1536 1537 1538 1538 1537 1538 1538 1538
1519 1524 1519 1517 1517 1517 1516 1515 1514 1513 1513 1509 1509 1509 1511 1512 1513 1514 1515 1517 1518 1519 1519 1519 1518 1520 1521 1523 1522 1525 1525 1525 1526 1527 1529 1531 1532 1533 1534 1534 1535 1535 1536 1536 1536 1535 1536 1538 1537
1522 1519 1519 1517 1517 1516 1515 1514 1513 1510 1507 1507 1507 1507 1508 1509 1511 1512 1513 1515 1517 1519 1519 1519 1520 1520 1521 1522 1524 1524 1525 1525 1525 1527 1527 1530 1531 1532 1533 1534 1534 1534 1535 1535 1535 1533 1533 1536 1535
1521 1521 1519 1518 1518 1517 1516 1514 1513 1506 1505 1505 1503 1503 1504 1506 1507 1510 1512 1514 1515 1517 1518 1520 1521 1522 1521 1522 1523 1524 1525 1526 1527 1527 1528 1529 1530 1532 1532 1533 1533 1533 1533 1533 1533 1531 1532 1533 1534
1522 1521 1519 1517 1516 1515 1514 1513 1514 1504 1504 1503 1505 1505 1505 1506 1507 1508 1510 1511 1513 1515 1517 1519 1520 1522 1523 1522 1523 1524 1526 1527 1527 1528 1529 1529 1529 1530 1531 1532 1532 1531 1531 1531 1531 1531 1531 1531 1531
1521 1521 1516 1513 1514 1516 1515 1515 1511 1505 1505 1505 1505 1506 1507 1508 1509 1509 1510 1513 1514 1514 1516 1518 1520 1522 1523 1524 1525 1525 1526 1527 1527 1528 1529 1529 1529 1529 1530 1530 1530 1530 1530 1529 1529 1529 1529 1529 1529
1521 1524 1528 1515 1513 1512 1513 1515 1500 1499 1498 1500 1502 1504 1505 1507 1509 1511 1514 1514 1514 1515 1515 1517 1519 1521 1524 1525 1526 1526 1526 1526 1528 1527 1528 1528 1528 1528 1528 1528 1528 1528 1527 1527 1527 1527 1527 1527 1527
1530 1532 1525 1520 1514 1513 1514 1512 1500 1499 1498 1496 1496 1499 1501 1503 1506 1509 1512 1514 1515 1515 1516 1516 1519 1520 1522 1524 1525 1526 1525 1525 1525 1527 1527 1527 1526 1526 1526 1526 1526 1525 1525 1525 1525 1525 1525 1525 1524
1531 1530 1526 1526 1517 1515 1517 1508 1502 1500 1498 1496 1496 1497 1498 1499 1501 1507 1510 1514 1514 1513 1515 1517 1517 1520 1522 1523 1525 1524 1525 1526 1526 1526 1525 1525 1525 1525 1525 1525 1524 1524 1524 1523 1523 1523 1522 1521 1519
1530 1533 1536 1526 1518 1518 1515 1506 1493 1492 1493 1492 1491 1492 1493 1494 1497 1500 1506 1509 1512 1513 1513 1515 1517 1518 1520 1523 1525 1525 1525 1525 1525 1525 1525 1525 1524 1523 1523 1523 1522 1522 1522 1521 1520 1520 1519 1519 1517
1529 1532 1531 1522 1519 1520 1515 1511 1485 1488 1485 1485 1483 1485 1486 1489 1491 1497 1498 1503 1506 1509 1511 1514 1517 1519 1520 1521 1523 1525 1525 1525 1525 1525 1525 1524 1523 1522 1522 1521 1521 1520 1520 1518 1518 1517 1518 1518 1516
1530 1531 1532 1532 1524 1517 1517 1510 1495 1487 1487 1483 1483 1479 1479 1482 1487 1492 1498 1499 1505 1507 1510 1512 1515 1519 1520 1521 1521 1523 1525 1525 1525 1525 1525 1524 1523 1522 1521 1520 1519 1519 1518 1517 1517 1516 1515 1516 1516
1532 1526 1526 1528 1534 1538 1522 1532 1505 1495 1494 1489 1480 1474 1468 1474 1480 1486 1492 1497 1500 1505 1509 1512 1515 1517 1520 1521 1522 1522 1523 1524 1524 1525 1524 1523 1522 1522 1521 1520 1519 1518 1518 1517 1516 1515 1515 1515 1514
1526 1524 1527 1526 1537 1540 1531 1547 1507 1497 1493 1492 1489 1482 1476 1475 1479 1484 1486 1494 1498 1503 1507 1511 1514 1517 1518 1520 1522 1522 1522 1523 1524 1524 1523 1523 1522 1521 1520 1520 1519 1518 1518 1517 1517 1515 1514 1513 1511
1524 1525 1530 1536 1539 1554 1526 1532 1511 1499 1494 1492 1489 1487 1483 1477 1481 1487 1490 1495 1498 1502 1507 1510 1513 1515 1517 1519 1520 1521 1521 1522 1522 1522 1522 1522 1521 1520 1519 1519 1518 1518 1517 1515 1514 1513 1512 1511 1509
1524 1530 1549 1549 1562 1539 1528 1534 1509 1500 1497 1494 1490 1486 1484 1480 1480 1484 1488 1491 1496 1500 1504 1509 1512 1514 1517 1518 1519 1519 1520 1521 1521 1521 1521 1521 1520 1519 1519 1518 1517 1516 1514 1513 1512 1511 1510 1508 1506
1528 1529 1548 1550 1553 1539 1531 1522 1500 1496 1494 1492 1490 1487 1484 1478 1479 1484 1488 1491 1496 1499 1502 1506 1509 1512 1515 1517 1517 1518 1519 1519 1520 1520 1520 1519 1518 1518 1517 1516 1515 1514 1512 1511 1510 1508 1507 1505 1503
1530 1535 1531 1535 1542 1557 1529 1514 1496 1494 1493 1491 1490 1488 1486 1483 1481 1482 1486 1490 1495 1499 1502 1505 1508 1511 1513 1515 1516 1517 1518 1518 1518 1518 1518 1517 1516 1515 1514 1513 1512 1511 1509 1508 1507 1505 1503 1501 1498
1525 1526 1538 1543 1550 1546 1529 1520 1506 1494 1493 1491 1490 1489 1487 1485 1484 1484 1486 1489 1495 1500 1503 1505 1507 1509 1511 1512 1515 1515 1516 1516 1516 1515 1516 1515 1514 1513 1511 1510 1509 1508 1507 1505 1504 1502 1499 1496 1495
1532 1531 1533 1534 1540 1553 1551 1511 1497 1492 1491 1490 1489 1489 1487 1486 1485 1486 1487 1491 1495 1500 1502 1503 1505 1508 1510 1511 1513 1514 1514 1515 1513 1513 1514 1513 1512 1510 1509 1508 1507 1506 1504 1503 1501 1499 1496 1493 1492
1521 1523 1525 1528 1533 1543 1543 1513 1489 1491 1489 1488 1487 1489 1488 1487 1486 1487 1487 1492 1495 1496 1500 1501 1504 1507 1509 1510 1512 1513 1513 1512 1512 1511 1511 1511 1510 1508 1507 1506 1505 1503 1502 1500 1498 1496 1493 1491 1490